EHI
0 0 0 0 0 0 0 0 0 0 0 0 0 0 0 0 0 0 0 0 0 0 0 0 0 0 0 0 0 0 0 0 0 0 0 0 0 0 0 0 0 0 0 0
0 0 0 0 0 0 0 0 0 0 0 0 0 0 0 0 0 0 0 0 0 0 0 0 0 0 0 0 0 0 0 0 0 0 0 0 0 0 0 0 0 0 0 0
0 0 0 0 0 0 0 0 0 0 0 0 0 0 0 0 0 0 0 0 0 0 0 0 0 0 0 0 0 0 0 0 0 0 0 0 0 0 0 0 0 0 0 0
0 0 0 0 0 0 0 0 0 0 0 0 0 0 0 0 0 0 0 0 0 0 0 0 0 0 0 0 0 0 0 0 0 0 0 0 0 0 0 0 0 0 0 0
0 0 0 0 0 0 0 0 0 0 0 0 0 0 0 0 0 0 0 0 0 0 0 0 0 0 0 0 0 0 0 0 0 0 0 0 0 0 0 0 0 0 0 0
0 0 0 0 0 0 0 0 0 0 0 0 0 0 0 0 0 0 0 0 0 0 0 0 0 0 0 0 0 0 0 0 0 0 0 0 0 0 0 0 0 0 0 0
0 0 0 0 0 0 0 0 0 0 0 0 0 0 0 0 0 0 0 0 0 0 0 0 0 0 0 0 0 0 0 0 0 0 0 0 0 0 0 0 0 0 0 0
0 0 0 0 0 0 0 0 0 0 0 0 0 0 0 0 0 0 0 0 0 0 0 0 0 0 0 0 0 0 0 0 0 0 0 0 0 0 0 0 0 0 0 0
0 0 0 0 0 0 0 0 0 0 0 0 0 0 0 0 0 0 0 0 0 0 0 0 0 0 0 0 0 0 0 0 0 0 0 0 0 0 0 0 0 0 0 0
0 0 0 0 0 0 0 0 0 0 0 0 0 0 0 0 0 0 0 0 0 0 0 0 0 0 0 0 0 0 0 0 0 0 0 0 0 0 0 0 0 0 0 0
0 0 0 0 0 0 0 0 0 0 0 0 0 0 0 0 0 0 0 0 0 0 0 0 0 0 0 0 0 0 0 0 0 0 0 0 0 0 0 0 0 0 0 0
0 0 0 0 0 0 0 0 0 0 0 0 0 0 0 0 0 0 0 0 0 0 0 0 0 0 0 0 0 0 0 0 0 0 0 0 0 0 0 0 0 0 0 0
0 0 0 0 0 0 0 0 0 0 0 0 0 0 0 0 0 0 0 0 0 0 0 0 0 0 0 0 0 0 0 0 0 0 0 0 0 0 0 0 0 0 0 0
0 0 0 0 0 0 0 0 0 0 0 0 0 0 0 0 0 0 0 0 0 0 0 0 0 0 0 0 0 0 0 0 0 0 0 0 0 0 0 0 0 0 0 0
0 0 0 0 0 0 0 0 0 0 0 0 0 0 0 0 0 0 0 0 0 0 0 0 0 0 0 0 0 0 0 0 0 0 0 0 0 0 0 0 0 0 0 0
0 0 0 0 0 0 0 0 0 0 0 0 0 0 0 0 0 0 0 0 0 0 0 0 0 0 0 0 0 0 0 0 0 0 0 0 0 0 0 0 0 0 0 0
0 0 0 0 0 0 0 0 0 0 0 0 0 0 0 0 0 0 0 0 0 0 0 0 0 0 0 0 0 0 0 0 0 0 0 0 0 0 0 0 0 0 0 0
0 0 0 0 0 0 0 0 0 0 0 0 0 0 0 0 0 0 0 0 0 0 0 0 0 0 0 0 0 0 0 0 0 0 0 0 0 0 0 0 0 0 0 0
0 0 0 0 0 0 0 0 0 0 0 0 0 0 0 0 0 0 0 0 0 0 0 0 0 0 0 0 0 0 0 0 0 0 0 0 0 0 0 0 0 0 0 0
0 0 0 0 0 0 0 0 0 0 0 0 0 0 0 0 0 0 0 0 0 0 0 0 0 0 0 0 0 0 0 0 0 0 0 0 0 0 0 0 0 0 0 0
0 0 0 0 0 0 0 0 0 0 0 0 0 0 0 0 0 0 0 0 0 0 0 0 0 0 0 0 0 0 0 0 0 0 0 0 0 0 0 0 0 0 0 0
0 0 0 0 0 0 0 0 0 0 0 0 0 0 0 0 0 0 0 0 0 0 0 0 0 0 0 0 0 0 0 0 0 0 0 0 0 0 0 0 0 0 0 0
0 0 0 0 0 0 0 0 0 0 0 0 0 0 0 0 0 0 0 0 0 0 0 0 0 0 0 0 0 0 0 0 0 0 0 0 0 0 0 0 0 0 0 0
0 0 0 0 0 0 0 0 0 0 0 0 0 0 0 0 0 0 0 0 0 0 0 0 0 0 0 0 0 0 0 0 0 0 0 0 0 0 0 0 0 0 0 0
0 0 0 0 0 0 0 0 0 0 0 0 0 0 0 0 0 0 0 0 0 0 0 0 0 0 0 0 0 0 0 0 0 0 0 0 0 0 0 0 0 0 0 0
0 0 0 0 0 0 0 0 0 0 0 0 0 0 0 0 0 0 0 0 0 0 0 0 0 0 0 0 0 0 0 0 0 0 0 0 0 0 0 0 0 0 0 0
0 0 0 0 0 0 0 0 0 0 0 0 0 0 0 0 0 0 0 0 0 0 0 0 0 0 0 0 0 0 0 0 0 0 0 0 0 0 0 0 0 0 0 0
Wind_Speed
6 6 7 8 9 8 9 9 9 9 11 11 9 9 9 9 9 9 9 9 9 8 8 7 7 6 5 4 2 1 1 1 2 2 3 3 4 4 4 4 4 4 5 5
5 6 7 9 10 9 9 10 11 11 11 7 6 6 7 8 8 8 9 9 9 8 8 8 7 6 5 4 3 1 1 1 2 3 3 3 3 3 4 4 4 4 4 4
4 5 6 8 6 6 6 6 7 8 7 5 5 6 7 7 7 8 8 9 8 8 8 7 7 6 5 4 3 1 1 1 2 2 3 3 3 3 3 3 4 4 4 4
3 3 6 1 1 3 6 7 7 8 7 6 7 7 6 5 7 8 8 8 8 8 8 7 7 5 5 4 2 1 1 1 2 2 3 3 3 3 2 2 3 3 3 3
2 4 8 4 2 2 4 7 4 5 6 6 6 6 4 4 6 7 8 7 7 7 7 7 6 5 4 3 2 1 1 1 2 2 3 2 2 2 2 2 2 2 3 3
3 5 7 1 2 0 3 6 2 3 5 5 5 5 4 5 7 7 7 6 7 6 6 6 6 5 4 3 2 1 1 1 1 2 2 2 2 2 2 2 3 2 2 2
6 6 8 1 1 2 5 3 1 4 5 4 5 6 6 6 6 6 6 6 6 6 5 5 5 5 4 3 3 2 2 2 1 1 2 2 2 2 2 2 3 3 2 2
5 7 7 3 3 5 4 3 3 4 5 5 6 6 6 5 5 6 6 6 6 5 5 5 5 4 4 4 4 3 2 2 2 1 1 2 2 2 2 3 3 3 2 2
7 6 2 4 5 5 4 5 5 5 5 6 6 6 5 5 5 5 5 5 5 5 5 5 5 4 3 3 3 3 2 2 2 2 2 2 2 2 2 2 2 2 2 1
7 9 7 7 8 7 6 6 6 5 6 5 6 6 5 5 4 4 5 4 4 4 4 5 5 4 3 3 2 2 2 2 2 2 2 2 1 1 1 2 2 2 2 2
9 8 8 7 8 8 6 6 5 5 5 5 6 5 5 4 4 4 4 4 4 3 4 4 5 4 4 3 2 2 2 1 1 1 1 1 1 1 0 1 1 2 2 2
8 6 5 6 5 6 6 6 6 5 5 5 5 5 5 4 4 3 3 3 3 3 4 4 4 4 4 3 2 1 1 1 1 1 1 1 1 1 2 1 1 1 1 2
7 5 6 6 5 4 5 6 6 6 6 5 5 4 4 3 3 2 2 3 3 3 3 3 4 4 4 4 2 1 1 1 0 0 1 1 1 1 1 2 2 1 1 1
6 4 5 5 5 5 5 5 4 4 5 4 4 3 3 3 2 2 2 3 2 2 2 2 3 3 4 3 2 1 1 1 0 0 0 1 1 1 1 1 0 0 1 0
8 7 7 5 5 4 4 3 3 4 3 3 3 3 3 3 3 3 2 2 2 2 2 2 2 3 3 3 2 1 1 0 0 0 0 0 0 0 0 1 1 1 1 0
6 6 6 6 6 5 4 4 5 5 4 3 3 3 3 3 2 2 2 2 2 2 2 2 2 3 3 2 1 1 0 1 0 0 0 0 0 0 0 0 0 1 1 1
5 6 7 7 8 7 7 6 6 5 4 4 4 3 2 2 2 2 2 2 2 2 2 2 2 2 2 2 1 1 0 0 0 0 0 0 0 0 1 1 1 1 1 1
9 9 8 8 7 7 7 6 6 5 5 4 3 2 2 3 3 3 2 2 1 1 2 2 2 1 1 1 1 1 0 0 0 0 0 1 1 1 1 1 1 1 1 1
8 7 7 6 5 5 5 6 5 5 4 3 3 3 3 3 3 3 2 2 2 2 2 2 2 1 1 1 1 1 1 1 0 0 1 1 1 0 1 1 1 1 1 1
7 6 5 4 4 4 5 4 4 4 3 3 3 3 3 3 2 2 2 2 3 2 1 1 1 1 1 1 1 1 1 1 1 1 1 1 1 0 0 1 1 1 1 1
6 5 5 5 4 4 4 4 4 4 3 4 4 4 3 3 2 2 2 2 2 1 1 2 1 1 1 1 1 1 1 1 1 1 1 1 1 0 0 0 1 1 1 1
4 4 5 4 4 3 3 3 4 4 3 3 3 3 2 2 2 2 3 2 1 2 1 1 1 1 1 1 1 1 1 1 1 1 1 1 1 1 0 1 1 1 1 1
4 4 4 4 4 3 2 2 3 3 4 3 3 3 3 3 2 2 2 1 1 1 1 1 1 1 2 1 1 1 1 1 1 0 0 0 0 1 1 1 1 1 2 2
4 3 3 3 3 3 3 3 2 2 2 3 2 3 2 2 2 2 2 1 1 1 1 1 2 2 2 1 1 1 1 1 0 0 0 0 0 1 1 1 2 2 2 2
3 3 3 4 4 3 3 2 2 2 2 1 1 2 2 2 2 1 1 1 1 2 1 1 2 2 1 1 1 1 1 1 0 0 0 0 1 1 1 1 2 2 2 2
3 3 3 3 2 2 2 2 2 2 2 1 1 1 1 1 1 1 1 1 2 2 1 1 1 1 1 1 1 1 0 0 0 0 0 1 1 1 2 2 3 2 2 3
3 2 2 2 2 2 2 3 3 2 2 2 2 1 1 1 1 1 1 1 1 1 1 1 1 1 1 1 1 0 0 0 0 1 1 1 1 2 2 2 2 2 3 3
Wind_Direction
267 276 275 275 276 269 252 251 255 267 275 289 307 314 321 327 333 338 342 344 346 347 346 349 351 349 346 345 347 355 116 126 154 157 156 149 149 155 155 160 171 172 171 177
266 263 273 274 272 265 258 257 255 266 274 294 310 315 322 328 332 337 339 340 341 345 345 345 345 341 339 340 346 3 86 105 129 132 128 135 143 145 144 150 156 161 167 172
269 295 285 264 250 239 245 247 248 257 275 309 306 308 316 321 327 334 334 334 336 337 337 336 334 332 332 333 342 4 64 98 116 119 120 124 130 136 143 148 149 154 159 159
280 290 254 271 101 246 253 255 251 266 284 290 290 295 302 311 325 330 330 330 330 331 332 332 333 338 337 332 341 5 87 114 117 119 117 119 129 137 141 146 149 151 155 157
237 260 273 263 214 228 248 267 249 259 279 297 307 290 284 324 327 323 323 323 324 327 328 330 334 338 337 343 354 22 67 92 106 121 124 127 133 144 148 145 141 141 146 151
223 248 258 297 104 263 249 261 203 252 280 303 303 284 304 331 322 321 325 327 329 330 332 336 338 335 336 347 358 14 18 50 85 116 127 133 142 146 142 137 137 136 137 146
230 247 265 297 175 192 235 294 354 270 278 280 273 285 311 314 316 320 324 328 332 334 335 336 338 340 341 346 353 358 20 48 56 81 114 129 135 136 132 129 129 128 129 133
207 229 252 143 167 221 274 336 285 279 277 271 273 286 297 303 311 318 323 328 334 335 337 339 342 344 347 352 358 10 35 54 61 69 86 114 127 129 135 139 138 136 132 127
215 235 318 191 229 265 285 272 279 279 280 271 272 279 288 295 305 312 321 326 329 332 335 341 349 353 1 1 8 25 45 56 67 75 81 97 117 133 142 148 148 147 150 160
251 256 259 257 259 266 267 271 280 279 273 265 269 276 282 291 301 310 319 324 326 332 337 341 348 355 358 357 11 37 52 50 59 73 72 76 91 121 152 160 161 164 176 189
249 266 276 258 247 256 264 270 277 278 269 261 262 268 273 283 292 301 312 317 321 326 330 334 342 349 353 358 16 36 47 54 63 75 83 78 71 57 149 211 200 198 204 209
240 240 243 266 269 256 251 255 260 264 268 264 258 261 268 275 283 291 299 309 317 324 327 332 340 345 347 350 2 30 43 46 63 101 107 116 108 64 45 47 55 359 274 261
253 262 262 274 276 254 248 256 258 255 255 259 258 256 257 266 275 281 290 300 304 311 319 329 338 342 344 346 351 4 5 357 53 116 136 151 161 150 105 74 88 78 73 325
242 246 257 251 257 254 252 258 258 257 257 257 255 252 251 258 267 273 283 291 295 301 309 321 334 336 340 340 349 1 2 16 8 189 175 187 192 200 182 171 164 54 58 7
228 232 244 256 259 253 248 248 252 256 259 261 253 246 243 249 260 272 284 291 289 292 303 317 326 328 336 340 347 353 350 358 7 76 152 190 182 184 196 211 223 262 299 292
232 238 241 244 246 245 240 240 245 250 251 249 247 248 249 251 258 271 279 276 273 282 295 302 309 319 329 335 335 337 30 65 359 307 154 159 162 175 207 227 248 269 298 324
212 229 234 242 243 241 238 236 238 243 239 238 243 249 250 251 259 266 270 268 266 270 275 276 288 305 312 315 308 305 326 95 89 143 172 194 211 221 239 253 266 280 294 307
229 235 232 233 232 234 237 238 238 236 233 235 234 227 226 230 242 254 260 263 271 289 288 284 284 292 299 306 295 281 262 254 209 184 202 212 225 222 224 236 249 266 281 287
235 238 238 235 227 223 227 230 228 225 224 215 208 215 227 238 244 249 245 235 244 265 280 287 279 279 284 284 283 237 219 195 170 184 195 197 219 205 215 235 251 264 276 291
236 236 232 229 224 220 223 222 215 214 212 205 206 213 227 240 241 235 229 238 250 262 265 267 261 254 255 235 225 216 189 178 178 183 196 206 208 216 236 258 266 281 294 301
230 225 220 219 220 218 216 210 205 207 203 197 201 213 226 238 233 221 225 247 263 255 242 233 238 240 219 188 193 190 174 174 182 193 202 204 209 216 241 273 284 292 297 300
221 212 212 211 208 213 209 200 199 197 193 196 203 209 215 225 224 226 237 252 265 233 227 225 227 199 149 152 160 154 152 153 167 190 202 206 214 228 248 274 283 289 290 290
216 210 204 202 200 195 189 195 193 191 193 197 202 208 215 223 222 225 246 254 257 226 196 176 167 150 143 134 125 134 142 151 163 172 197 221 242 260 269 278 282 283 287 290
205 199 194 178 158 167 193 203 193 194 195 204 210 213 213 219 233 242 270 262 218 200 180 166 161 148 136 121 124 125 124 126 129 154 195 222 249 266 267 271 277 282 282 285
192 183 173 170 180 197 198 180 169 180 188 201 212 214 217 229 236 239 233 222 199 181 180 172 153 140 134 131 136 142 151 162 169 188 238 253 264 270 274 276 276 278 279 280
189 191 195 199 197 187 178 180 189 193 192 200 214 209 207 215 223 209 181 178 178 172 159 147 148 145 142 141 146 158 174 222 259 266 265 275 278 279 279 282 284 280 279 280
176 180 177 188 194 188 185 190 194 196 198 200 207 193 181 173 167 165 159 153 150 153 145 131 132 135 139 142 146 156 178 224 260 261 264 272 280 282 283 282 282 282 281 278